contact: severine.martini@mio.osupytheas.fr, dominique.lefevre@mio.osupytheas.fr
Project:EMSO Ligure-ouest http://www.emso-fr.org/EMSO-France
Sensor Optode, line 4330 Serial 272 
DOI : "https://doi.org/10.17882/97948" 
Title:EMSO Ligure Ouest : Data BathyDock capteur Optode - deploiement "2023-04-28"
Datetime,Profondeur,Latitude,Longitude,optode_type,serial,O2_concentration,O2_saturation,Temperature,Calibrated_Phase,Temp_Compensated_Phase,phase_blue_light,phase_red_light,Amplitude_blue_light,Amplitude_red_light,thermistor_bridge
time,m,degree_north,degree_east,1,1,umol.l-1,%,degree_C,degree,degree,degree,degree,mV,mV,mV
2023-11-15T00:00:08,2420,42.8014,5.9826,4330,272,186.501,57.126,13.314,36.035,36.615,41.205,4.590,295.5,544.2,291.1
2023-11-15T00:03:07,2420,42.8014,5.9826,4330,272,186.629,57.163,13.313,36.028,36.608,41.201,4.593,295.5,544.2,291.1
2023-11-15T00:06:07,2420,42.8014,5.9826,4330,272,186.561,57.142,13.313,36.032,36.612,41.200,4.588,295.5,544.3,291.1
2023-11-15T00:09:07,2420,42.8014,5.9826,4330,272,186.402,57.097,13.316,36.041,36.621,41.212,4.591,295.5,544.3,291.0
2023-11-15T00:12:07,2420,42.8014,5.9826,4330,272,186.492,57.123,13.315,36.036,36.616,41.202,4.586,295.5,544.2,291.1
2023-11-15T00:15:07,2420,42.8014,5.9826,4330,272,186.541,57.138,13.315,36.033,36.613,41.197,4.584,295.5,544.2,291.1
2023-11-15T00:18:07,2420,42.8014,5.9826,4330,272,186.634,57.163,13.311,36.028,36.608,41.200,4.592,295.4,544.3,291.2
2023-11-15T00:21:07,2420,42.8014,5.9826,4330,272,186.756,57.200,13.311,36.020,36.600,41.189,4.589,295.6,544.3,291.2
2023-11-15T00:24:07,2420,42.8014,5.9826,4330,272,186.574,57.147,13.314,36.031,36.611,41.204,4.593,295.6,544.2,291.1
2023-11-15T00:27:08,2420,42.8014,5.9826,4330,272,186.702,57.183,13.311,36.024,36.604,41.191,4.587,295.5,544.3,291.2
2023-11-15T00:30:08,2420,42.8014,5.9826,4330,272,186.547,57.139,13.313,36.032,36.612,41.204,4.592,295.5,544.3,291.1
2023-11-15T00:33:07,2420,42.8014,5.9826,4330,272,186.545,57.135,13.311,36.034,36.614,41.203,4.589,295.5,544.3,291.2
2023-11-15T00:36:07,2420,42.8014,5.9826,4330,272,186.649,57.167,13.311,36.027,36.607,41.197,4.590,295.5,544.2,291.2
2023-11-15T00:39:07,2420,42.8014,5.9826,4330,272,186.638,57.166,13.313,36.027,36.607,41.194,4.587,295.5,544.2,291.1
2023-11-15T00:42:07,2420,42.8014,5.9826,4330,272,186.547,57.138,13.313,36.033,36.613,41.204,4.591,295.5,544.1,291.1
2023-11-15T00:45:07,2420,42.8014,5.9826,4330,272,186.768,57.205,13.312,36.019,36.599,41.187,4.588,295.5,544.2,291.2
2023-11-15T00:48:07,2420,42.8014,5.9826,4330,272,186.707,57.187,13.313,36.022,36.602,41.194,4.592,295.5,544.3,291.1
2023-11-15T00:51:08,2420,42.8014,5.9826,4330,272,186.843,57.228,13.312,36.014,36.594,41.187,4.593,295.5,544.2,291.1
2023-11-15T00:54:08,2420,42.8014,5.9826,4330,272,186.554,57.142,13.314,36.032,36.612,41.200,4.588,295.7,544.3,291.1
2023-11-15T00:57:08,2420,42.8014,5.9826,4330,272,186.691,57.179,13.311,36.024,36.604,41.194,4.590,295.5,544.2,291.2
2023-11-15T01:00:08,2420,42.8014,5.9826,4330,272,186.509,57.125,13.312,36.035,36.615,41.205,4.590,295.6,544.3,291.2
2023-11-15T01:03:07,2420,42.8014,5.9826,4330,272,186.462,57.111,13.312,36.039,36.619,41.210,4.591,295.5,544.2,291.2
2023-11-15T01:06:07,2420,42.8014,5.9826,4330,272,186.595,57.152,13.312,36.030,36.610,41.200,4.590,295.5,544.2,291.1
2023-11-15T01:09:07,2420,42.8014,5.9826,4330,272,186.770,57.205,13.312,36.019,36.599,41.197,4.598,295.5,544.2,291.2
2023-11-15T01:12:07,2420,42.8014,5.9826,4330,272,186.545,57.136,13.312,36.033,36.613,41.203,4.590,295.5,544.2,291.2
2023-11-15T01:15:07,2420,42.8014,5.9826,4330,272,186.357,57.082,13.315,36.044,36.624,41.214,4.590,295.5,544.2,291.1
2023-11-15T01:18:07,2420,42.8014,5.9826,4330,272,186.609,57.159,13.315,36.028,36.608,41.197,4.589,295.5,544.3,291.1
2023-11-15T01:21:08,2420,42.8014,5.9826,4330,272,186.623,57.165,13.316,36.026,36.606,41.199,4.593,295.5,544.3,291.0
2023-11-15T01:24:08,2420,42.8014,5.9826,4330,272,186.485,57.123,13.316,36.036,36.616,41.205,4.589,295.5,544.3,291.0
2023-11-15T01:27:08,2420,42.8014,5.9826,4330,272,186.450,57.108,13.313,36.039,36.619,41.210,4.591,295.5,544.3,291.1
2023-11-15T01:30:07,2420,42.8014,5.9826,4330,272,186.603,57.158,13.315,36.028,36.608,41.202,4.594,295.5,544.2,291.1
2023-11-15T01:33:07,2420,42.8014,5.9826,4330,272,186.488,57.122,13.315,36.036,36.616,41.205,4.589,295.5,544.2,291.1
2023-11-15T01:36:07,2420,42.8014,5.9826,4330,272,186.463,57.119,13.318,36.035,36.615,41.201,4.586,295.5,544.2,290.9
2023-11-15T01:39:07,2420,42.8014,5.9826,4330,272,186.519,57.128,13.312,36.035,36.615,41.207,4.591,295.6,544.3,291.2
2023-11-15T01:42:08,2420,42.8014,5.9826,4330,272,186.406,57.099,13.316,36.040,36.620,41.210,4.590,295.5,544.2,291.0
2023-11-15T01:45:08,2420,42.8014,5.9826,4330,272,186.398,57.096,13.315,36.041,36.621,41.209,4.588,295.6,544.2,291.0
2023-11-15T01:48:08,2420,42.8014,5.9826,4330,272,186.604,57.157,13.314,36.028,36.608,41.199,4.591,295.5,544.3,291.1
2023-11-15T01:51:08,2420,42.8014,5.9826,4330,272,186.348,57.077,13.313,36.046,36.626,41.214,4.588,295.6,544.2,291.1
2023-11-15T01:54:07,2420,42.8014,5.9826,4330,272,186.493,57.126,13.317,36.034,36.614,41.203,4.589,295.6,544.3,291.0
2023-11-15T01:57:07,2420,42.8014,5.9826,4330,272,186.662,57.177,13.316,36.024,36.604,41.194,4.590,295.6,544.2,291.0
2023-11-15T02:00:07,2420,42.8014,5.9826,4330,272,186.623,57.160,13.312,36.028,36.608,41.193,4.585,295.5,544.2,291.2
2023-11-15T02:03:07,2420,42.8014,5.9826,4330,272,186.451,57.113,13.316,36.037,36.617,41.211,4.594,295.5,544.2,291.0
2023-11-15T02:06:07,2420,42.8014,5.9826,4330,272,186.617,57.167,13.319,36.025,36.605,41.198,4.592,295.6,544.2,290.9
2023-11-15T02:09:07,2420,42.8014,5.9826,4330,272,186.404,57.097,13.315,36.041,36.621,41.218,4.597,295.5,544.3,291.1
2023-11-15T02:12:07,2420,42.8014,5.9826,4330,272,186.333,57.078,13.317,36.044,36.624,41.218,4.594,295.5,544.2,291.0
2023-11-15T02:15:07,2420,42.8014,5.9826,4330,272,186.592,57.155,13.316,36.028,36.608,41.199,4.590,295.6,544.2,291.0
2023-11-15T02:18:07,2420,42.8014,5.9826,4330,272,186.630,57.166,13.315,36.026,36.607,41.199,4.592,295.5,544.3,291.1
2023-11-15T02:21:08,2420,42.8014,5.9826,4330,272,186.731,57.203,13.320,36.017,36.598,41.189,4.592,295.5,544.2,290.9
2023-11-15T02:24:08,2420,42.8014,5.9826,4330,272,186.584,57.155,13.318,36.028,36.608,41.194,4.586,295.5,544.2,291.0
2023-11-15T02:27:08,2420,42.8014,5.9826,4330,272,186.236,57.051,13.319,36.050,36.630,41.213,4.584,295.6,544.2,290.9
2023-11-15T02:30:08,2420,42.8014,5.9826,4330,272,186.655,57.177,13.317,36.023,36.603,41.191,4.587,295.5,544.2,291.0
2023-11-15T02:33:07,2420,42.8014,5.9826,4330,272,186.628,57.168,13.317,36.026,36.606,41.197,4.591,295.6,544.3,291.0
2023-11-15T02:36:07,2420,42.8014,5.9826,4330,272,186.320,57.074,13.318,36.045,36.625,41.216,4.590,295.6,544.2,291.0
2023-11-15T02:39:07,2420,42.8014,5.9826,4330,272,186.654,57.178,13.319,36.023,36.603,41.194,4.591,295.5,544.2,290.9
2023-11-15T02:42:07,2420,42.8014,5.9826,4330,272,186.515,57.133,13.316,36.033,36.613,41.204,4.590,295.5,544.2,291.0
2023-11-15T02:45:07,2420,42.8014,5.9826,4330,272,186.640,57.169,13.315,36.026,36.606,41.195,4.589,295.6,544.2,291.1
2023-11-15T02:48:07,2420,42.8014,5.9826,4330,272,186.446,57.115,13.319,36.036,36.616,41.202,4.586,295.6,544.2,290.9
2023-11-15T02:51:08,2420,42.8014,5.9826,4330,272,186.377,57.093,13.319,36.041,36.621,41.213,4.592,295.5,544.2,290.9
2023-11-15T02:54:08,2420,42.8014,5.9826,4330,272,186.639,57.176,13.321,36.023,36.603,41.196,4.593,295.6,544.2,290.9
2023-11-15T02:57:08,2420,42.8014,5.9826,4330,272,186.554,57.146,13.318,36.030,36.610,41.204,4.594,295.6,544.1,291.0
2023-11-15T03:00:08,2420,42.8014,5.9826,4330,272,186.358,57.088,13.319,36.042,36.622,41.211,4.589,295.6,544.2,290.9
2023-11-15T03:03:07,2420,42.8014,5.9826,4330,272,186.547,57.148,13.321,36.029,36.609,41.197,4.588,295.5,544.2,290.9
2023-11-15T03:06:07,2420,42.8014,5.9826,4330,272,186.628,57.172,13.320,36.024,36.604,41.192,4.588,295.5,544.2,290.9
2023-11-15T03:09:07,2420,42.8014,5.9826,4330,272,186.584,57.151,13.314,36.030,36.610,41.199,4.589,295.5,544.2,291.1
2023-11-15T03:12:08,2420,42.8014,5.9826,4330,272,186.558,57.144,13.315,36.031,36.611,41.194,4.583,295.5,544.3,291.0
2023-11-15T03:15:08,2420,42.8014,5.9826,4330,272,186.524,57.134,13.315,36.033,36.613,41.204,4.591,295.6,544.2,291.0
2023-11-15T03:18:08,2420,42.8014,5.9826,4330,272,186.436,57.107,13.315,36.039,36.619,41.205,4.586,295.5,544.2,291.1
2023-11-15T03:21:08,2420,42.8014,5.9826,4330,272,186.528,57.134,13.315,36.033,36.613,41.203,4.590,295.6,544.2,291.1
2023-11-15T03:24:08,2420,42.8014,5.9826,4330,272,186.217,57.043,13.318,36.052,36.632,41.223,4.590,295.6,544.3,291.0
2023-11-15T03:27:07,2420,42.8014,5.9826,4330,272,186.577,57.155,13.319,36.028,36.608,41.197,4.589,295.5,544.2,290.9
2023-11-15T03:30:07,2420,42.8014,5.9826,4330,272,186.441,57.115,13.321,36.036,36.616,41.208,4.592,295.5,544.2,290.9
2023-11-15T03:33:08,2420,42.8014,5.9826,4330,272,186.338,57.090,13.326,36.040,36.620,41.211,4.590,295.5,544.2,290.7
2023-11-15T03:36:07,2420,42.8014,5.9826,4330,272,186.372,57.096,13.322,36.040,36.620,41.214,4.594,295.5,544.2,290.8
2023-11-15T03:39:07,2420,42.8014,5.9826,4330,272,186.481,57.135,13.327,36.030,36.611,41.207,4.596,295.5,544.1,290.7
2023-11-15T03:42:07,2420,42.8014,5.9826,4330,272,186.467,57.128,13.325,36.032,36.612,41.201,4.589,295.6,544.2,290.7
2023-11-15T03:45:07,2420,42.8014,5.9826,4330,272,186.435,57.117,13.324,36.035,36.615,41.214,4.599,295.6,544.1,290.8
2023-11-15T03:48:07,2420,42.8014,5.9826,4330,272,186.187,57.044,13.326,36.050,36.630,41.217,4.588,295.6,544.1,290.7
2023-11-15T03:51:07,2420,42.8014,5.9826,4330,272,186.361,57.097,13.326,36.039,36.619,41.212,4.593,295.6,544.2,290.7
2023-11-15T03:54:07,2420,42.8014,5.9826,4330,272,186.410,57.105,13.320,36.038,36.618,41.210,4.592,295.6,544.2,290.9
2023-11-15T03:57:08,2420,42.8014,5.9826,4330,272,186.188,57.035,13.318,36.054,36.633,41.220,4.586,295.5,544.2,290.9
2023-11-15T04:00:08,2420,42.8014,5.9826,4330,272,186.389,57.103,13.324,36.038,36.618,41.206,4.588,295.6,544.2,290.8
2023-11-15T04:03:07,2420,42.8014,5.9826,4330,272,186.307,57.082,13.327,36.042,36.622,41.212,4.590,295.6,544.2,290.7
2023-11-15T04:06:07,2420,42.8014,5.9826,4330,272,186.356,57.098,13.327,36.038,36.618,41.210,4.592,295.6,544.2,290.7
2023-11-15T04:09:07,2420,42.8014,5.9826,4330,272,186.304,57.079,13.325,36.043,36.623,41.213,4.590,295.6,544.2,290.7
2023-11-15T04:12:07,2420,42.8014,5.9826,4330,272,186.275,57.067,13.323,36.046,36.626,41.212,4.586,295.6,544.2,290.8
2023-11-15T04:15:07,2420,42.8014,5.9826,4330,272,186.397,57.099,13.319,36.040,36.620,41.211,4.590,295.6,544.2,290.9
2023-11-15T04:18:07,2420,42.8014,5.9826,4330,272,186.445,57.119,13.322,36.035,36.615,41.206,4.591,295.6,544.2,290.8
2023-11-15T04:21:07,2420,42.8014,5.9826,4330,272,185.954,56.969,13.323,36.067,36.647,41.238,4.592,295.6,544.2,290.8
2023-11-15T04:24:07,2420,42.8014,5.9826,4330,272,186.316,57.078,13.321,36.044,36.624,41.221,4.597,295.6,544.2,290.9
2023-11-15T04:27:08,2420,42.8014,5.9826,4330,272,186.487,57.123,13.316,36.035,36.615,41.208,4.593,295.6,544.2,291.0
2023-11-15T04:30:08,2420,42.8014,5.9826,4330,272,186.482,57.125,13.318,36.035,36.615,41.205,4.591,295.6,544.2,291.0
2023-11-15T04:33:07,2420,42.8014,5.9826,4330,272,186.574,57.149,13.315,36.029,36.609,41.202,4.593,295.6,544.2,291.1
2023-11-15T04:36:07,2420,42.8014,5.9826,4330,272,186.394,57.096,13.317,36.041,36.621,41.217,4.597,295.6,544.2,291.0
2023-11-15T04:39:07,2420,42.8014,5.9826,4330,272,186.348,57.083,13.318,36.043,36.623,41.211,4.588,295.6,544.2,291.0
2023-11-15T04:42:07,2420,42.8014,5.9826,4330,272,186.339,57.080,13.317,36.044,36.624,41.214,4.589,295.6,544.2,291.0
2023-11-15T04:45:07,2420,42.8014,5.9826,4330,272,186.486,57.134,13.324,36.031,36.611,41.199,4.588,295.6,544.2,290.8
2023-11-15T04:48:07,2420,42.8014,5.9826,4330,272,186.274,57.082,13.335,36.040,36.620,41.207,4.588,295.6,544.1,290.4
2023-11-15T04:51:08,2420,42.8014,5.9826,4330,272,186.051,57.004,13.327,36.058,36.638,41.224,4.586,295.6,544.2,290.7
2023-11-15T04:54:08,2420,42.8014,5.9826,4330,272,186.403,57.106,13.322,36.038,36.618,41.208,4.591,295.6,544.2,290.8
2023-11-15T04:57:08,2420,42.8014,5.9826,4330,272,186.121,57.012,13.316,36.059,36.639,41.230,4.591,295.7,544.2,291.0
2023-11-15T05:00:08,2420,42.8014,5.9826,4330,272,186.252,57.056,13.320,36.049,36.629,41.215,4.586,295.6,544.2,290.9
2023-11-15T05:03:07,2420,42.8014,5.9826,4330,272,186.499,57.129,13.317,36.033,36.613,41.209,4.596,295.6,544.2,291.0
2023-11-15T05:06:07,2420,42.8014,5.9826,4330,272,186.299,57.069,13.319,36.046,36.626,41.215,4.589,295.6,544.1,290.9
2023-11-15T05:09:07,2420,42.8014,5.9826,4330,272,186.139,57.017,13.316,36.058,36.637,41.222,4.584,295.6,544.2,291.0
2023-11-15T05:12:07,2420,42.8014,5.9826,4330,272,186.288,57.075,13.326,36.043,36.623,41.209,4.585,295.5,544.2,290.7
2023-11-15T05:15:07,2420,42.8014,5.9826,4330,272,186.352,57.104,13.333,36.036,36.616,41.211,4.595,295.6,544.2,290.5
2023-11-15T05:18:07,2420,42.8014,5.9826,4330,272,186.328,57.090,13.328,36.040,36.620,41.211,4.591,295.6,544.2,290.6
2023-11-15T05:21:07,2420,42.8014,5.9826,4330,272,186.219,57.059,13.330,36.046,36.626,41.214,4.588,295.7,544.2,290.6
2023-11-15T05:24:07,2420,42.8014,5.9826,4330,272,186.408,57.103,13.319,36.038,36.619,41.206,4.588,295.7,544.2,290.9
2023-11-15T05:27:08,2420,42.8014,5.9826,4330,272,186.125,57.017,13.319,36.057,36.637,41.227,4.590,295.6,544.3,290.9
2023-11-15T05:30:08,2420,42.8014,5.9826,4330,272,186.198,57.037,13.318,36.054,36.634,41.225,4.591,295.7,544.2,291.0
2023-11-15T05:33:07,2420,42.8014,5.9826,4330,272,186.447,57.111,13.316,36.038,36.618,41.210,4.593,295.7,544.2,291.0
2023-11-15T05:36:07,2420,42.8014,5.9826,4330,272,186.489,57.128,13.319,36.033,36.613,41.203,4.590,295.7,544.2,290.9
2023-11-15T05:39:07,2420,42.8014,5.9826,4330,272,186.249,57.059,13.323,36.047,36.627,41.217,4.590,295.7,544.2,290.8
2023-11-15T05:42:07,2420,42.8014,5.9826,4330,272,186.240,57.059,13.325,36.047,36.627,41.218,4.592,295.7,544.2,290.8
2023-11-15T05:45:07,2420,42.8014,5.9826,4330,272,186.317,57.087,13.328,36.040,36.620,41.211,4.591,295.7,544.2,290.6
2023-11-15T05:48:07,2420,42.8014,5.9826,4330,272,186.477,57.137,13.329,36.030,36.610,41.203,4.593,295.6,544.2,290.6
2023-11-15T05:51:08,2420,42.8014,5.9826,4330,272,186.266,57.070,13.328,36.044,36.624,41.216,4.592,295.6,544.2,290.6
2023-11-15T05:54:08,2420,42.8014,5.9826,4330,272,186.124,57.029,13.329,36.053,36.633,41.221,4.588,295.6,544.2,290.6
2023-11-15T05:57:08,2420,42.8014,5.9826,4330,272,186.182,57.045,13.328,36.050,36.630,41.217,4.587,295.6,544.3,290.6
2023-11-15T06:00:08,2420,42.8014,5.9826,4330,272,186.186,57.044,13.326,36.050,36.630,41.222,4.592,295.7,544.2,290.7
2023-11-15T06:03:07,2420,42.8014,5.9826,4330,272,186.246,57.058,13.323,36.047,36.627,41.221,4.594,295.7,544.1,290.8
2023-11-15T06:06:07,2420,42.8014,5.9826,4330,272,186.353,57.087,13.320,36.042,36.622,41.216,4.594,295.7,544.2,290.9
2023-11-15T06:09:07,2420,42.8014,5.9826,4330,272,186.258,57.060,13.322,36.048,36.628,41.218,4.590,295.6,544.2,290.8
2023-11-15T06:12:07,2420,42.8014,5.9826,4330,272,186.394,57.099,13.319,36.040,36.620,41.212,4.592,295.6,544.2,290.9
2023-11-15T06:15:07,2420,42.8014,5.9826,4330,272,186.223,57.050,13.322,36.050,36.630,41.219,4.589,295.7,544.3,290.8
2023-11-15T06:18:07,2420,42.8014,5.9826,4330,272,186.248,57.063,13.326,36.046,36.626,41.213,4.587,295.7,544.2,290.7
2023-11-15T06:21:08,2420,42.8014,5.9826,4330,272,186.241,57.052,13.319,36.049,36.629,41.220,4.591,295.7,544.2,290.9
2023-11-15T06:24:08,2420,42.8014,5.9826,4330,272,186.304,57.072,13.320,36.045,36.625,41.213,4.588,295.7,544.2,290.9
2023-11-15T06:27:07,2420,42.8014,5.9826,4330,272,186.082,57.021,13.333,36.053,36.633,41.225,4.592,295.7,544.2,290.5
2023-11-15T06:30:07,2420,42.8014,5.9826,4330,272,186.327,57.099,13.335,36.037,36.617,41.208,4.591,295.6,544.2,290.4
2023-11-15T06:33:08,2420,42.8014,5.9826,4330,272,186.228,57.073,13.339,36.040,36.620,41.210,4.590,295.6,544.1,290.3
2023-11-15T06:36:07,2420,42.8014,5.9826,4330,272,185.987,56.998,13.338,36.057,36.637,41.224,4.586,295.7,544.1,290.3
2023-11-15T06:39:07,2420,42.8014,5.9826,4330,272,185.896,56.964,13.333,36.065,36.645,41.234,4.589,295.7,544.2,290.5
2023-11-15T06:42:07,2420,42.8014,5.9826,4330,272,186.198,57.058,13.334,36.045,36.625,41.214,4.589,295.7,544.2,290.4
2023-11-15T06:45:08,2420,42.8014,5.9826,4330,272,185.993,56.992,13.332,36.060,36.640,41.228,4.588,295.6,544.1,290.5
2023-11-15T06:48:08,2420,42.8014,5.9826,4330,272,186.181,57.047,13.330,36.049,36.628,41.220,4.592,295.8,544.1,290.6
2023-11-15T06:51:07,2420,42.8014,5.9826,4330,272,186.267,57.070,13.327,36.044,36.624,41.216,4.592,295.7,544.1,290.7
2023-11-15T06:54:07,2420,42.8014,5.9826,4330,272,186.199,57.059,13.335,36.045,36.625,41.222,4.597,295.7,544.1,290.4
2023-11-15T06:57:07,2420,42.8014,5.9826,4330,272,186.152,57.031,13.324,36.053,36.633,41.228,4.595,295.8,544.2,290.8
2023-11-15T07:00:07,2420,42.8014,5.9826,4330,272,186.281,57.069,13.323,36.045,36.625,41.214,4.589,295.6,544.2,290.8
2023-11-15T07:03:08,2420,42.8014,5.9826,4330,272,186.085,57.009,13.323,36.058,36.638,41.226,4.588,295.7,544.2,290.8
2023-11-15T07:06:08,2420,42.8014,5.9826,4330,272,186.231,57.046,13.317,36.051,36.631,41.220,4.589,295.6,544.2,291.0
2023-11-15T07:09:07,2420,42.8014,5.9826,4330,272,186.103,57.027,13.333,36.052,36.632,41.220,4.588,295.6,544.2,290.5
2023-11-15T07:12:07,2420,42.8014,5.9826,4330,272,186.060,57.020,13.338,36.053,36.633,41.224,4.592,295.6,544.1,290.3
2023-11-15T07:15:07,2420,42.8014,5.9826,4330,272,186.099,57.034,13.339,36.049,36.629,41.221,4.592,295.7,544.1,290.3
2023-11-15T07:18:07,2420,42.8014,5.9826,4330,272,186.088,57.014,13.326,36.057,36.637,41.224,4.587,295.7,544.1,290.7
2023-11-15T07:21:07,2420,42.8014,5.9826,4330,272,186.007,56.980,13.319,36.065,36.645,41.233,4.588,295.7,544.2,290.9
2023-11-15T07:24:07,2420,42.8014,5.9826,4330,272,186.109,57.022,13.327,36.054,36.634,41.224,4.590,295.7,544.2,290.7
2023-11-15T07:27:08,2420,42.8014,5.9826,4330,272,186.021,56.989,13.322,36.062,36.642,41.229,4.587,295.6,544.1,290.8
2023-11-15T07:30:08,2420,42.8014,5.9826,4330,272,185.911,56.969,13.333,36.064,36.644,41.236,4.592,295.6,544.1,290.5
2023-11-15T07:33:07,2420,42.8014,5.9826,4330,272,186.083,57.027,13.338,36.051,36.631,41.220,4.589,295.7,544.1,290.3
2023-11-15T07:36:07,2420,42.8014,5.9826,4330,272,185.991,56.995,13.335,36.058,36.638,41.229,4.591,295.7,544.1,290.4
2023-11-15T07:39:07,2420,42.8014,5.9826,4330,272,186.097,57.025,13.333,36.052,36.632,41.223,4.591,295.7,544.1,290.5
2023-11-15T07:42:07,2420,42.8014,5.9826,4330,272,186.033,57.001,13.329,36.058,36.638,41.226,4.588,295.7,544.1,290.6
2023-11-15T07:45:07,2420,42.8014,5.9826,4330,272,186.047,57.004,13.329,36.058,36.638,41.226,4.589,295.7,544.2,290.6
2023-11-15T07:48:07,2420,42.8014,5.9826,4330,272,186.218,57.063,13.334,36.044,36.624,41.214,4.590,295.7,544.1,290.5
2023-11-15T07:51:07,2420,42.8014,5.9826,4330,272,186.139,57.034,13.329,36.051,36.631,41.222,4.591,295.6,544.1,290.6
2023-11-15T07:54:08,2420,42.8014,5.9826,4330,272,185.901,56.969,13.336,36.064,36.644,41.233,4.589,295.7,544.1,290.4
2023-11-15T07:57:08,2420,42.8014,5.9826,4330,272,185.893,56.948,13.321,36.071,36.651,41.238,4.587,295.7,544.2,290.9
2023-11-15T08:00:08,2420,42.8014,5.9826,4330,272,186.034,56.995,13.324,36.061,36.640,41.232,4.591,295.8,544.2,290.8
2023-11-15T08:03:07,2420,42.8014,5.9826,4330,272,186.293,57.076,13.325,36.044,36.624,41.217,4.594,295.7,544.2,290.7
2023-11-15T08:06:07,2420,42.8014,5.9826,4330,272,186.236,57.060,13.326,36.047,36.627,41.221,4.595,295.7,544.2,290.7
2023-11-15T08:09:07,2420,42.8014,5.9826,4330,272,186.018,56.996,13.328,36.060,36.640,41.231,4.591,295.8,544.2,290.6
2023-11-15T08:12:07,2420,42.8014,5.9826,4330,272,186.289,57.066,13.319,36.047,36.626,41.218,4.592,295.8,544.2,290.9
2023-11-15T08:15:07,2420,42.8014,5.9826,4330,272,186.138,57.028,13.325,36.054,36.633,41.225,4.591,295.6,544.2,290.7
2023-11-15T08:18:07,2420,42.8014,5.9826,4330,272,186.237,57.058,13.324,36.047,36.627,41.213,4.586,295.6,544.2,290.8
2023-11-15T08:21:07,2420,42.8014,5.9826,4330,272,186.299,57.072,13.321,36.045,36.625,41.219,4.594,295.7,544.3,290.9
2023-11-15T08:24:07,2420,42.8014,5.9826,4330,272,186.016,56.988,13.323,36.062,36.642,41.230,4.587,295.7,544.2,290.8
2023-11-15T08:27:08,2420,42.8014,5.9826,4330,272,186.456,57.111,13.314,36.038,36.618,41.208,4.590,295.6,544.3,291.1
2023-11-15T08:30:08,2420,42.8014,5.9826,4330,272,186.479,57.116,13.312,36.038,36.618,41.208,4.590,295.7,544.3,291.2
2023-11-15T08:33:07,2420,42.8014,5.9826,4330,272,186.291,57.061,13.314,36.048,36.628,41.223,4.595,295.6,544.3,291.1
2023-11-15T08:36:07,2420,42.8014,5.9826,4330,272,186.399,57.108,13.325,36.037,36.617,41.210,4.593,295.6,544.2,290.7
2023-11-15T08:39:07,2420,42.8014,5.9826,4330,272,186.190,57.028,13.312,36.057,36.637,41.224,4.587,295.7,544.3,291.2
2023-11-15T08:42:07,2420,42.8014,5.9826,4330,272,186.368,57.089,13.318,36.042,36.622,41.210,4.588,295.7,544.3,291.0
2023-11-15T08:45:07,2420,42.8014,5.9826,4330,272,186.287,57.068,13.321,36.046,36.626,41.215,4.589,295.7,544.2,290.9
2023-11-15T08:48:08,2420,42.8014,5.9826,4330,272,186.312,57.067,13.314,36.047,36.627,41.219,4.592,295.6,544.2,291.1
2023-11-15T08:51:08,2420,42.8014,5.9826,4330,272,186.332,57.077,13.316,36.045,36.625,41.215,4.591,295.7,544.2,291.0
2023-11-15T08:54:08,2420,42.8014,5.9826,4330,272,186.025,56.982,13.316,36.066,36.645,41.233,4.588,295.6,544.2,291.0
2023-11-15T08:57:08,2420,42.8014,5.9826,4330,272,186.425,57.110,13.321,36.037,36.617,41.207,4.590,295.7,544.2,290.9
2023-11-15T09:00:07,2420,42.8014,5.9826,4330,272,186.152,57.017,13.313,36.058,36.638,41.227,4.588,295.7,544.2,291.1
2023-11-15T09:03:07,2420,42.8014,5.9826,4330,272,186.169,57.035,13.323,36.053,36.633,41.224,4.591,295.6,544.3,290.8
2023-11-15T09:06:07,2420,42.8014,5.9826,4330,272,186.257,57.066,13.326,36.045,36.625,41.218,4.592,295.7,544.3,290.7
2023-11-15T09:09:07,2420,42.8014,5.9826,4330,272,186.101,57.001,13.312,36.062,36.642,41.229,4.587,295.7,544.2,291.1
2023-11-15T09:12:07,2420,42.8014,5.9826,4330,272,186.048,56.985,13.313,36.066,36.646,41.231,4.586,295.7,544.3,291.1
2023-11-15T09:15:07,2420,42.8014,5.9826,4330,272,186.253,57.050,13.315,36.051,36.631,41.220,4.589,295.6,544.2,291.1
2023-11-15T09:18:08,2420,42.8014,5.9826,4330,272,186.230,57.038,13.310,36.055,36.634,41.221,4.586,295.7,544.3,291.2
2023-11-15T09:21:08,2420,42.8014,5.9826,4330,272,186.363,57.085,13.315,36.043,36.623,41.213,4.590,295.6,544.3,291.1
2023-11-15T09:24:08,2420,42.8014,5.9826,4330,272,186.270,57.057,13.316,36.050,36.630,41.213,4.583,295.7,544.3,291.0
2023-11-15T09:27:08,2420,42.8014,5.9826,4330,272,186.256,57.059,13.321,36.048,36.628,41.218,4.590,295.7,544.2,290.9
2023-11-15T09:30:07,2420,42.8014,5.9826,4330,272,186.350,57.082,13.317,36.043,36.623,41.215,4.592,295.7,544.3,291.0
2023-11-15T09:33:07,2420,42.8014,5.9826,4330,272,186.276,57.057,13.315,36.049,36.629,41.216,4.587,295.7,544.2,291.1
2023-11-15T09:36:07,2420,42.8014,5.9826,4330,272,186.340,57.082,13.319,36.044,36.624,41.217,4.593,295.6,544.2,290.9
2023-11-15T09:39:07,2420,42.8014,5.9826,4330,272,186.278,57.066,13.321,36.046,36.626,41.214,4.587,295.6,544.2,290.9
2023-11-15T09:42:07,2420,42.8014,5.9826,4330,272,186.395,57.098,13.318,36.041,36.621,41.214,4.593,295.6,544.2,291.0
2023-11-15T09:45:08,2420,42.8014,5.9826,4330,272,186.280,57.062,13.318,36.048,36.628,41.217,4.588,295.6,544.2,291.0
2023-11-15T09:48:08,2420,42.8014,5.9826,4330,272,186.352,57.078,13.313,36.046,36.626,41.217,4.591,295.7,544.3,291.1
2023-11-15T09:51:08,2420,42.8014,5.9826,4330,272,186.229,57.039,13.312,36.054,36.634,41.223,4.589,295.6,544.3,291.2
2023-11-15T09:54:07,2420,42.8014,5.9826,4330,272,186.237,57.044,13.314,36.052,36.632,41.224,4.592,295.5,544.3,291.1
2023-11-15T09:57:07,2420,42.8014,5.9826,4330,272,186.176,57.035,13.322,36.053,36.633,41.218,4.585,295.6,544.2,290.8
2023-11-15T10:00:07,2420,42.8014,5.9826,4330,272,186.514,57.131,13.315,36.034,36.614,41.201,4.587,295.7,544.2,291.1